EZY188P EGKK-EDDF

Flight info

Callsign EZY188P
Flight time 1h 4m
Altitude 37000
Route MIMFO Y312 DVR UL9 KONAN UL607 SPI T180 NIVNU/N0402F230 T847 IMCOM IMCOM1D
Aircraft A320/M-SDE3FGHIRWY/LB1

Departure

Time 2026-04-15 10:54
Airport London Gatwick Airport (EGKK)

Arrival

Time 2026-04-15 11:58
Airport Frankfurt Main Airport (EDDF)
Time Latitude Longitude Altitude Speed Heading
2026-04-15 10:24 51.15500 -0.16838 208 ft 0 kts 346°
2026-04-15 10:45 51.15499 -0.16837 208 ft 2 kts 346°
2026-04-15 10:45 51.15482 -0.16830 218 ft 3 kts 346°
2026-04-15 10:45 51.15464 -0.16823 212 ft 3 kts 346°
2026-04-15 10:45 51.15446 -0.16818 208 ft 3 kts
2026-04-15 10:46 51.15434 -0.16823 208 ft 0 kts 35°
2026-04-15 10:50 51.15439 -0.16815 208 ft 3 kts 48°
2026-04-15 10:50 51.15448 -0.16766 213 ft 7 kts 95°
2026-04-15 10:50 51.15419 -0.16717 211 ft 6 kts 160°
2026-04-15 10:51 51.15377 -0.16700 208 ft 6 kts 168°
2026-04-15 10:51 51.15335 -0.16682 212 ft 6 kts 162°
2026-04-15 10:51 51.15293 -0.16664 213 ft 6 kts 168°
2026-04-15 10:51 51.15285 -0.16662 208 ft 0 kts 168°
2026-04-15 10:52 51.15284 -0.16661 208 ft 1 kts 168°
2026-04-15 10:52 51.15230 -0.16644 216 ft 14 kts 168°
2026-04-15 10:52 51.15170 -0.16626 216 ft 7 kts 170°
2026-04-15 10:53 51.15147 -0.16645 207 ft 4 kts 226°
2026-04-15 10:53 51.15134 -0.16689 209 ft 7 kts 255°
2026-04-15 10:53 51.15087 -0.17020 216 ft 61 kts 256°
2026-04-15 10:53 51.14950 -0.18022 213 ft 123 kts 257°
2026-04-15 10:54 51.14739 -0.19629 328 ft 160 kts 256°
2026-04-15 10:54 51.14523 -0.21321 1003 ft 153 kts 252°
2026-04-15 10:54 51.14286 -0.22967 1717 ft 152 kts 250°
2026-04-15 10:54 51.14036 -0.24656 2316 ft 167 kts 251°
2026-04-15 10:55 51.13773 -0.26532 2916 ft 181 kts 255°
2026-04-15 10:55 51.13752 -0.28641 3443 ft 204 kts 274°
2026-04-15 10:55 51.14380 -0.30818 3821 ft 234 kts 306°
2026-04-15 10:55 51.15766 -0.32255 3970 ft 246 kts 343°
2026-04-15 10:56 51.17466 -0.32209 3992 ft 249 kts 20°
2026-04-15 10:56 51.18864 -0.30677 3994 ft 244 kts 56°
2026-04-15 10:56 51.19557 -0.28285 4039 ft 237 kts 79°
2026-04-15 10:56 51.19922 -0.25698 4062 ft 240 kts 83°
2026-04-15 10:57 51.20239 -0.23076 4076 ft 246 kts 83°
2026-04-15 10:57 51.20925 -0.17355 4199 ft 276 kts 83°
2026-04-15 10:57 51.21300 -0.14332 4981 ft 279 kts 82°
2026-04-15 10:58 51.21680 -0.11294 5945 ft 281 kts 81°
2026-04-15 10:58 51.22065 -0.08218 6797 ft 285 kts 81°
2026-04-15 10:58 51.22458 -0.05089 7617 ft 290 kts 80°
2026-04-15 10:58 51.22855 -0.01917 8494 ft 294 kts 79°
2026-04-15 10:59 51.23256 0.01288 9416 ft 296 kts 79°
2026-04-15 10:59 51.23660 0.04526 10282 ft 300 kts 78°
2026-04-15 10:59 51.24075 0.07857 10677 ft 321 kts 78°
2026-04-15 10:59 51.24525 0.11477 10980 ft 344 kts 78°
2026-04-15 11:00 51.25000 0.15304 11459 ft 359 kts 78°
2026-04-15 11:00 51.25397 0.19281 12158 ft 366 kts 87°
2026-04-15 11:00 51.25289 0.23359 12936 ft 371 kts 96°
2026-04-15 11:00 51.24991 0.27479 13366 ft 376 kts 98°
2026-04-15 11:01 51.24658 0.31642 14063 ft 381 kts 97°
2026-04-15 11:01 51.24322 0.35856 14765 ft 385 kts 97°
2026-04-15 11:01 51.23987 0.40116 15490 ft 389 kts 97°
2026-04-15 11:01 51.23652 0.44411 16195 ft 393 kts 96°
2026-04-15 11:02 51.23314 0.48759 16890 ft 397 kts 96°
2026-04-15 11:02 51.22973 0.53147 17580 ft 401 kts 96°
2026-04-15 11:02 51.22629 0.57576 18228 ft 405 kts 96°
2026-04-15 11:02 51.22398 0.60539 18610 ft 408 kts 96°
2026-04-15 11:03 51.21929 0.66539 19350 ft 415 kts 96°
2026-04-15 11:03 51.21569 0.71128 19910 ft 419 kts 96°
2026-04-15 11:03 51.21202 0.75770 20479 ft 424 kts 96°
2026-04-15 11:03 51.20830 0.80451 21049 ft 428 kts 95°
2026-04-15 11:04 51.20451 0.85184 21752 ft 433 kts 95°
2026-04-15 11:04 51.20067 0.89967 22275 ft 437 kts 95°
2026-04-15 11:04 51.19677 0.94788 22787 ft 441 kts 95°
2026-04-15 11:04 51.19281 0.99663 23281 ft 445 kts 95°
2026-04-15 11:05 51.18880 1.04574 23755 ft 449 kts 95°
2026-04-15 11:05 51.18473 1.09538 24146 ft 453 kts 95°
2026-04-15 11:05 51.18066 1.14462 24564 ft 456 kts 95°
2026-04-15 11:05 51.17649 1.19482 24976 ft 459 kts 95°
2026-04-15 11:06 51.17227 1.24537 25374 ft 462 kts 95°
2026-04-15 11:06 51.16799 1.29630 25769 ft 465 kts 95°
2026-04-15 11:06 51.16370 1.34740 26153 ft 467 kts 94°
2026-04-15 11:06 51.16014 1.39901 26531 ft 469 kts 92°
2026-04-15 11:07 51.15739 1.45090 26891 ft 471 kts 91°
2026-04-15 11:07 51.15502 1.50315 27257 ft 474 kts 90°
2026-04-15 11:07 51.15276 1.55563 27613 ft 476 kts 90°
2026-04-15 11:07 51.15043 1.60843 27960 ft 479 kts 90°
2026-04-15 11:08 51.14800 1.66148 28316 ft 482 kts 90°
2026-04-15 11:08 51.14549 1.71407 28657 ft 484 kts 91°
2026-04-15 11:08 51.14285 1.76764 28996 ft 486 kts 91°
2026-04-15 11:08 51.14013 1.82142 29317 ft 489 kts 91°
2026-04-15 11:09 51.13736 1.87543 29647 ft 491 kts 91°
2026-04-15 11:09 51.13455 1.92964 30019 ft 491 kts 91°
2026-04-15 11:09 51.13120 1.98372 30432 ft 492 kts 96°
2026-04-15 11:09 51.12466 2.03718 30848 ft 491 kts 99°
2026-04-15 11:10 51.11723 2.09010 31265 ft 489 kts 100°
2026-04-15 11:10 51.10948 2.14196 31651 ft 488 kts 101°
2026-04-15 11:10 51.10141 2.19424 32021 ft 486 kts 101°
2026-04-15 11:10 51.09324 2.24638 32388 ft 485 kts 101°
2026-04-15 11:11 51.08783 2.28074 32616 ft 484 kts 101°
2026-04-15 11:11 51.07690 2.35016 33063 ft 483 kts 101°
2026-04-15 11:11 51.07153 2.38438 33275 ft 482 kts 102°
2026-04-15 11:11 51.06069 2.45342 33706 ft 481 kts 102°
2026-04-15 11:12 51.05269 2.50432 34007 ft 480 kts 102°
2026-04-15 11:12 51.04459 2.55574 34274 ft 480 kts 102°
2026-04-15 11:12 51.03648 2.60711 34527 ft 479 kts 102°
2026-04-15 11:12 51.02836 2.65835 34782 ft 478 kts 102°
2026-04-15 11:13 51.02288 2.69288 34946 ft 478 kts 102°
2026-04-15 11:13 51.01208 2.76059 35271 ft 476 kts 102°
2026-04-15 11:13 51.00669 2.79431 35418 ft 476 kts 102°
2026-04-15 11:13 50.99854 2.84521 35653 ft 476 kts 102°
2026-04-15 11:14 50.99036 2.89604 35865 ft 475 kts 102°
2026-04-15 11:14 50.98220 2.94665 36081 ft 475 kts 102°
2026-04-15 11:14 50.97398 2.99749 36281 ft 474 kts 103°
2026-04-15 11:14 50.96309 3.06456 36553 ft 474 kts 103°
2026-04-15 11:15 50.95485 3.11513 36749 ft 473 kts 103°
2026-04-15 11:15 50.94928 3.14924 36879 ft 473 kts 103°
2026-04-15 11:15 50.94113 3.19906 37054 ft 473 kts 103°
2026-04-15 11:15 50.93283 3.24960 37141 ft 474 kts 103°
2026-04-15 11:16 50.91619 3.35045 37148 ft 472 kts 103°
2026-04-15 11:16 50.89957 3.45064 37149 ft 471 kts 103°
2026-04-15 11:17 50.88281 3.55104 37150 ft 471 kts 103°
2026-04-15 11:17 50.86611 3.65053 37160 ft 471 kts 103°
2026-04-15 11:18 50.84921 3.75064 37162 ft 471 kts 103°
2026-04-15 11:18 50.83224 3.85057 37165 ft 470 kts 104°
2026-04-15 11:19 50.81519 3.95037 37171 ft 470 kts 104°
2026-04-15 11:19 50.79810 4.04985 37175 ft 470 kts 104°
2026-04-15 11:20 50.78099 4.14893 37178 ft 469 kts 104°
2026-04-15 11:20 50.76372 4.24831 37180 ft 469 kts 104°
2026-04-15 11:21 50.74638 4.34756 37180 ft 469 kts 104°
2026-04-15 11:21 50.72908 4.44602 37182 ft 468 kts 104°
2026-04-15 11:22 50.71160 4.54498 37184 ft 468 kts 104°
2026-04-15 11:22 50.69409 4.64355 37180 ft 460 kts 104°
2026-04-15 11:23 50.68555 4.69147 36908 ft 446 kts 107°
2026-04-15 11:23 50.67725 4.73803 37152 ft 439 kts 107°
2026-04-15 11:23 50.66058 4.83085 37193 ft 441 kts 107°
2026-04-15 11:24 50.64386 4.92341 37195 ft 443 kts 107°
2026-04-15 11:24 50.62692 5.01672 37199 ft 443 kts 107°
2026-04-15 11:25 50.60993 5.10993 37203 ft 443 kts 107°
2026-04-15 11:25 50.59287 5.20308 37212 ft 443 kts 107°
2026-04-15 11:26 50.57571 5.29627 37212 ft 443 kts 107°
2026-04-15 11:26 50.55861 5.38863 37214 ft 443 kts 107°
2026-04-15 11:27 50.54133 5.48157 37215 ft 443 kts 107°
2026-04-15 11:27 50.52398 5.57437 37204 ft 443 kts 106°
2026-04-15 11:28 50.50686 5.66740 37207 ft 443 kts 105°
2026-04-15 11:28 50.49052 5.76060 37206 ft 443 kts 105°
2026-04-15 11:29 50.47438 5.85317 37202 ft 442 kts 105°
2026-04-15 11:29 50.45800 5.94620 37199 ft 442 kts 105°
2026-04-15 11:30 50.44149 6.03908 37199 ft 442 kts 105°
2026-04-15 11:30 50.42488 6.13187 37206 ft 442 kts 105°
2026-04-15 11:31 50.40821 6.22459 37206 ft 442 kts 105°
2026-04-15 11:31 50.39162 6.31638 37093 ft 437 kts 104°
2026-04-15 11:32 50.38337 6.36185 36659 ft 434 kts 105°
2026-04-15 11:32 50.37510 6.40731 36048 ft 431 kts 105°
2026-04-15 11:32 50.36690 6.45235 35252 ft 433 kts 105°
2026-04-15 11:32 50.36045 6.49839 34568 ft 429 kts 96°
2026-04-15 11:33 50.35681 6.54454 33793 ft 428 kts 95°
2026-04-15 11:33 50.35360 6.59131 32653 ft 435 kts 94°
2026-04-15 11:33 50.35050 6.63879 31515 ft 442 kts 94°
2026-04-15 11:33 50.34741 6.68711 30366 ft 449 kts 94°
2026-04-15 11:34 50.34428 6.73597 28994 ft 455 kts 95°
2026-04-15 11:34 50.34112 6.78519 27670 ft 464 kts 95°
2026-04-15 11:34 50.33754 6.83592 26553 ft 473 kts 98°
2026-04-15 11:34 50.32878 6.88586 25453 ft 481 kts 111°
2026-04-15 11:35 50.31536 6.93407 24430 ft 485 kts 115°
2026-04-15 11:35 50.30098 6.98185 23575 ft 485 kts 116°
2026-04-15 11:35 50.28668 7.02906 22472 ft 476 kts 116°
2026-04-15 11:35 50.27268 7.07547 21210 ft 468 kts 116°
2026-04-15 11:36 50.25890 7.12126 20079 ft 463 kts 116°
2026-04-15 11:36 50.24526 7.16658 19361 ft 458 kts 116°
2026-04-15 11:36 50.23196 7.21083 19060 ft 442 kts 116°
2026-04-15 11:36 50.21911 7.25354 18812 ft 427 kts 116°
2026-04-15 11:37 50.20669 7.29475 18591 ft 412 kts 116°
2026-04-15 11:37 50.19529 7.33426 18373 ft 398 kts 113°
2026-04-15 11:37 50.18547 7.37390 18152 ft 385 kts 111°
2026-04-15 11:37 50.17639 7.41218 17909 ft 367 kts 111°
2026-04-15 11:38 50.16776 7.44864 17640 ft 349 kts 111°
2026-04-15 11:38 50.15953 7.48331 17404 ft 333 kts 111°
2026-04-15 11:38 50.15166 7.51635 17108 ft 320 kts 111°
2026-04-15 11:38 50.14386 7.54890 16420 ft 322 kts 111°
2026-04-15 11:39 50.13599 7.58168 15751 ft 323 kts 112°
2026-04-15 11:39 50.12801 7.61485 14791 ft 332 kts 112°
2026-04-15 11:39 50.11976 7.64906 13704 ft 342 kts 112°
2026-04-15 11:39 50.11152 7.68434 12519 ft 351 kts 109°
2026-04-15 11:40 50.10428 7.72013 11763 ft 347 kts 108°
2026-04-15 11:40 50.09744 7.75536 11364 ft 332 kts 108°
2026-04-15 11:40 50.09100 7.78865 11257 ft 310 kts 108°
2026-04-15 11:40 50.08508 7.81963 11244 ft 287 kts 105°
2026-04-15 11:41 50.08186 7.84907 11238 ft 267 kts 92°
2026-04-15 11:41 50.08349 7.87732 11252 ft 261 kts 76°
2026-04-15 11:41 50.08893 7.90436 11252 ft 262 kts 70°
2026-04-15 11:41 50.09535 7.93072 11186 ft 258 kts 69°
2026-04-15 11:42 50.10184 7.95670 10844 ft 259 kts 69°
2026-04-15 11:42 50.10863 7.98407 10557 ft 286 kts 69°
2026-04-15 11:42 50.11588 8.01348 10404 ft 300 kts 69°
2026-04-15 11:42 50.12333 8.04384 10279 ft 300 kts 70°
2026-04-15 11:43 50.13072 8.07413 10158 ft 298 kts 70°
2026-04-15 11:43 50.13809 8.10436 10084 ft 298 kts 70°
2026-04-15 11:43 50.14542 8.13447 9975 ft 297 kts 70°
2026-04-15 11:43 50.15272 8.16456 9856 ft 296 kts 70°
2026-04-15 11:44 50.16000 8.19456 9746 ft 295 kts 70°
2026-04-15 11:44 50.16726 8.22450 9633 ft 295 kts 70°
2026-04-15 11:44 50.17446 8.25433 9525 ft 294 kts 70°
2026-04-15 11:44 50.18157 8.28378 9375 ft 284 kts 70°
2026-04-15 11:45 50.18840 8.31208 9250 ft 273 kts 70°
2026-04-15 11:45 50.19335 8.33953 9109 ft 261 kts 84°
2026-04-15 11:45 50.19238 8.36701 8942 ft 250 kts 108°
2026-04-15 11:45 50.18486 8.39047 8883 ft 240 kts 130°
2026-04-15 11:46 50.17237 8.40735 8857 ft 239 kts 152°
2026-04-15 11:46 50.15723 8.41806 8729 ft 239 kts 161°
2026-04-15 11:46 50.14113 8.42402 8588 ft 238 kts 174°
2026-04-15 11:46 50.12469 8.42355 8342 ft 237 kts 193°
2026-04-15 11:47 50.10980 8.41357 8073 ft 233 kts 219°
2026-04-15 11:47 50.09978 8.39409 7835 ft 232 kts 242°
2026-04-15 11:47 50.09326 8.37100 7581 ft 234 kts 248°
2026-04-15 11:47 50.08758 8.34722 7343 ft 235 kts 248°
2026-04-15 11:48 50.08201 8.32342 7095 ft 233 kts 249°
2026-04-15 11:48 50.07654 8.30014 6869 ft 232 kts 248°
2026-04-15 11:48 50.07095 8.27657 6622 ft 232 kts 248°
2026-04-15 11:48 50.06536 8.25301 6355 ft 231 kts 248°
2026-04-15 11:49 50.05978 8.22957 6093 ft 230 kts 248°
2026-04-15 11:49 50.05421 8.20630 5839 ft 230 kts 247°
2026-04-15 11:49 50.04862 8.18297 5561 ft 229 kts 248°
2026-04-15 11:49 50.04293 8.15975 5341 ft 230 kts 243°
2026-04-15 11:50 50.03430 8.13922 5156 ft 225 kts 223°
2026-04-15 11:50 50.02191 8.12496 5067 ft 216 kts 207°
2026-04-15 11:50 50.00900 8.11530 5028 ft 203 kts 201°
2026-04-15 11:50 49.99614 8.10677 5008 ft 200 kts 200°
2026-04-15 11:51 49.98318 8.09913 4996 ft 200 kts 193°
2026-04-15 11:51 49.96971 8.09824 4996 ft 188 kts 165°
2026-04-15 11:51 49.95890 8.10702 4999 ft 169 kts 137°
2026-04-15 11:51 49.95294 8.12139 5007 ft 153 kts 101°
2026-04-15 11:52 49.95285 8.13767 5017 ft 153 kts 83°
2026-04-15 11:52 49.95526 8.15397 4985 ft 157 kts 75°
2026-04-15 11:52 49.95874 8.16994 4850 ft 153 kts 73°
2026-04-15 11:52 49.96225 8.18482 4650 ft 142 kts 72°
2026-04-15 11:53 49.96562 8.19902 4448 ft 139 kts 72°
2026-04-15 11:53 49.96890 8.21320 4243 ft 140 kts 69°
2026-04-15 11:53 49.97237 8.22727 4018 ft 142 kts 71°
2026-04-15 11:53 49.97580 8.24156 3804 ft 139 kts 71°
2026-04-15 11:54 49.97919 8.25558 3629 ft 138 kts 71°
2026-04-15 11:54 49.98264 8.26980 3464 ft 142 kts 70°
2026-04-15 11:54 49.98600 8.28389 3257 ft 137 kts 71°
2026-04-15 11:54 49.98930 8.29797 3104 ft 142 kts 71°
2026-04-15 11:55 49.99275 8.31222 2936 ft 142 kts 71°
2026-04-15 11:55 49.99624 8.32678 2684 ft 144 kts 69°
2026-04-15 11:55 49.99963 8.34087 2482 ft 136 kts 71°
2026-04-15 11:55 50.00290 8.35445 2306 ft 138 kts 70°
2026-04-15 11:56 50.00628 8.36857 2100 ft 140 kts 71°
2026-04-15 11:56 50.00960 8.38248 1920 ft 136 kts 70°
2026-04-15 11:56 50.01290 8.39627 1729 ft 135 kts 70°
2026-04-15 11:56 50.01622 8.41007 1546 ft 137 kts 70°
2026-04-15 11:57 50.01953 8.42384 1361 ft 136 kts 70°
2026-04-15 11:57 50.02605 8.45113 967 ft 134 kts 68°
2026-04-15 11:57 50.02930 8.46468 790 ft 134 kts 66°
2026-04-15 11:58 50.03257 8.47831 614 ft 135 kts 67°
2026-04-15 11:58 50.03577 8.49170 421 ft 133 kts 67°
2026-04-15 11:58 50.03879 8.50428 326 ft 125 kts 70°
2026-04-15 11:58 50.04080 8.51279 355 ft 43 kts 71°
2026-04-15 11:59 50.04112 8.51549 348 ft 21 kts 91°
2026-04-15 11:59 50.04097 8.51751 348 ft 18 kts 103°
2026-04-15 11:59 50.04079 8.51917 352 ft 15 kts 96°
2026-04-15 11:59 50.04072 8.52101 348 ft 18 kts 84°
2026-04-15 12:00 50.04115 8.52320 353 ft 25 kts 68°
2026-04-15 12:00 50.04174 8.52570 352 ft 10 kts 69°
2026-04-15 12:00 50.04198 8.52666 359 ft 6 kts 69°
2026-04-15 12:00 50.04204 8.52690 354 ft 0 kts 69°
2026-04-15 12:01 50.04204 8.52691 354 ft 0 kts 69°
2026-04-15 12:01 50.04219 8.52757 359 ft 15 kts 70°
2026-04-15 12:01 50.04271 8.52965 362 ft 18 kts 69°
2026-04-15 12:01 50.04311 8.53133 362 ft 16 kts 69°
2026-04-15 12:02 50.04353 8.53305 365 ft 20 kts 70°
2026-04-15 12:02 50.04399 8.53541 374 ft 25 kts 83°
2026-04-15 12:02 50.04415 8.53805 370 ft 24 kts 86°
2026-04-15 12:02 50.04430 8.54020 377 ft 18 kts 85°
2026-04-15 12:03 50.04442 8.54188 376 ft 15 kts 85°
2026-04-15 12:03 50.04458 8.54400 358 ft 25 kts 92°
2026-04-15 12:03 50.04409 8.54638 357 ft 13 kts 126°
2026-04-15 12:03 50.04358 8.54725 354 ft 10 kts 142°
2026-04-15 12:04 50.04307 8.54774 357 ft 0 kts 155°
2026-04-15 12:05 50.04270 8.54800 357 ft 17 kts 157°
2026-04-15 12:05 50.04119 8.54882 358 ft 22 kts 159°
2026-04-15 12:05 50.04075 8.54908 358 ft 0 kts 159°
2026-04-15 12:06 50.04069 8.54911 359 ft 6 kts 159°
2026-04-15 12:06 50.04027 8.55053 359 ft 27 kts 71°
2026-04-15 12:06 50.04087 8.55301 365 ft 22 kts 69°
2026-04-15 12:06 50.04141 8.55527 365 ft 22 kts 70°
2026-04-15 12:07 50.04194 8.55741 359 ft 21 kts 68°
2026-04-15 12:07 50.04245 8.55955 361 ft 21 kts 69°
2026-04-15 12:07 50.04294 8.56163 358 ft 20 kts 70°
2026-04-15 12:07 50.04338 8.56351 362 ft 17 kts 69°
2026-04-15 12:08 50.04375 8.56510 365 ft 15 kts 70°
2026-04-15 12:08 50.04408 8.56649 368 ft 13 kts 69°
2026-04-15 12:08 50.04437 8.56771 366 ft 12 kts 70°
2026-04-15 12:08 50.04470 8.56908 366 ft 16 kts 68°
2026-04-15 12:09 50.04518 8.57105 367 ft 24 kts 70°
2026-04-15 12:09 50.04581 8.57362 369 ft 26 kts 69°
2026-04-15 12:09 50.04637 8.57612 370 ft 21 kts 70°
2026-04-15 12:09 50.04674 8.57763 374 ft 0 kts 69°
2026-04-15 12:12 50.04675 8.57765 374 ft 1 kts 69°
2026-04-15 12:12 50.04693 8.57838 374 ft 13 kts 69°
2026-04-15 12:12 50.04773 8.57984 375 ft 23 kts 44°
2026-04-15 12:12 50.04838 8.58215 375 ft 24 kts 69°
2026-04-15 12:13 50.04877 8.58375 375 ft 2 kts 75°
2026-04-15 12:13 50.04873 8.58387 375 ft 1 kts 122°
2026-04-15 12:13 50.04862 8.58400 375 ft 4 kts 140°
2026-04-15 12:13 50.04830 8.58411 374 ft 6 kts 171°
2026-04-15 12:14 50.04811 8.58419 374 ft 0 kts 161°